[[{"header":{"parameterUnit":"m.s-1","parameterCategory":1,"la1":30.2991,"la2":30.254,"lo1":-89.0895,"lo2":-89.0444,"dx":0.0017,"dy":0.0017,"nx":28,"ny":28,"refTime":"2023-02-06T15:00:00:Z","depth":0,"parameterNumber":2,"parameterNumberName":"U-component_of_WINDS"},"data":[0,0,0,0,0,0,0,0,0,0,0,0,0,0,0,0,0,0,0,0,0,0,0,0,0,0,0,0,0,0,0,0,0,0,0,0,0,0,0,0,0,0,0,0,0,0,0,0,0,0,0,0,0,0,0,0,0,0,-5.0979,-5.098,0,-5.1063,-5.1064,-5.1065,-5.1055,-5.1054,-5.1052,-5.1051,-5.1133,-5.1136,-5.114,0,0,0,0,0,0,0,0,0,0,0,0,0,-5.0808,-5.0811,-5.0979,-5.098,-5.0981,-5.1063,-5.1064,-5.1065,-5.1055,-5.1054,-5.1052,-5.105,-5.1132,-5.1136,-5.114,0,0,0,0,0,0,0,0,0,0,0,0,0,-5.0886,-5.0812,-5.0979,-5.0986,-5.0988,-5.1063,-5.1064,-5.1065,-5.1056,-5.1054,-5.1051,-5.105,-5.113,-5.1135,-5.114,-5.1212,0,0,-5.1156,-5.1158,0,0,0,0,0,0,0,0,-5.0882,-5.0892,-5.0984,-5.0986,-5.0988,-5.1047,-5.1034,-5.1115,-5.1056,-5.103,-5.1051,-5.1049,-5.1106,-5.1113,-5.1133,-5.1216,-5.122,-5.1157,-5.116,-5.1162,-5.1163,0,0,0,0,0,0,0,-5.0876,-5.0889,-5.1012,-5.0986,-5.0988,-5.0985,-5.0993,-5.1049,-5.1078,-5.1032,-5.1031,-5.1042,-5.1106,-5.1128,-5.1134,-5.1221,-5.1156,-5.1161,-5.1164,-5.1166,-5.1369,-5.1371,0,0,0,0,0,0,-5.087,-5.0884,-5.101,-5.1015,-5.0929,-5.0989,-5.0999,-5.103,-5.1077,-5.1082,-5.1043,-5.1041,-5.112,-5.1128,-5.1137,-5.1225,-5.1162,-5.1167,-5.117,-5.1366,-5.1369,-5.1371,0,0,0,0,0,0,-5.0866,-5.0881,-5.1006,-5.095,-5.0965,-5.0994,-5.1029,-5.1032,-5.1054,-5.1086,-5.109,-5.106,-5.1119,-5.113,-5.1194,-5.1227,-5.1169,-5.1174,-5.1364,-5.1367,-5.137,-5.14,0,0,0,0,0,0,-5.0861,-5.088,-5.0908,-5.095,-5.0968,-5.1063,-5.1031,-5.1035,-5.1063,-5.1061,-5.1103,-5.1108,-5.1118,-5.1187,-5.1199,-5.1233,-5.1178,-5.1361,-5.1365,-5.1369,-5.1396,-5.1404,-5.1411,0,0,0,0,0,-5.0855,-5.0912,-5.0909,-5.0924,-5.1004,-5.1065,-5.1075,-5.1086,-5.1066,-5.1094,-5.1115,-5.1107,-5.1222,-5.1193,-5.1207,-5.1244,-5.1359,-5.1364,-5.1369,-5.1393,-5.1403,-5.1411,0,0,0,0,0,0,-5.087,-5.0917,-5.0915,-5.0987,-5.1022,-5.1063,-5.1098,-5.1096,-5.1136,-5.1132,-5.1144,-5.1153,-5.1218,-5.1237,-5.1204,-5.1316,-5.1287,-5.1296,-5.1301,-5.131,-5.1318,-5.1311,-5.1182,0,0,0,0,0,-5.0883,-5.0929,-5.0967,-5.1027,-5.1045,-5.1069,-5.1095,-5.1102,-5.1138,-5.1152,-5.1177,-5.1211,-5.1256,-5.1284,-5.1327,-5.14,-5.1408,-5.1432,-5.1439,-5.1445,-5.1451,-5.1492,-5.1503,-5.1388,-5.1388,-5.1388,0,0,-5.0907,-5.0939,-5.0967,-5.1031,-5.1059,-5.1105,-5.1081,-5.1131,-5.1166,-5.1159,-5.1221,-5.1242,-5.1281,-5.135,-5.1382,-5.1368,-5.1485,-5.1451,-5.1456,-5.1459,-5.1498,-5.1509,-5.1519,-5.1392,-5.1391,-5.1391,0,0,-5.0976,-5.1005,-5.1059,-5.1088,-5.1131,-5.1147,-5.116,-5.1201,-5.1215,-5.1278,-5.1274,-5.1315,-5.1391,-5.1419,-5.1443,-5.1526,-5.1519,-5.1539,-5.1577,-5.1616,-5.1625,-5.1633,-5.1662,-5.1672,-5.1546,-5.1546,-5.1546,0,-5.1001,-5.1072,-5.1086,-5.1137,-5.1166,-5.1164,-5.1218,-5.1245,-5.1299,-5.1318,-5.1303,-5.1399,-5.1425,-5.1501,-5.1521,-5.1541,-5.1556,-5.1534,-5.1623,-5.1631,-5.1639,-5.1666,-5.1677,-5.1548,-5.1548,-5.1548,-5.1547,0,-5.1101,-5.115,-5.1188,-5.1243,-5.1275,-5.1328,-5.1349,-5.138,-5.1384,-5.1402,-5.1466,-5.1498,-5.1547,-5.1566,-5.157,-5.1643,-5.1633,-5.1621,-5.1591,-5.1652,-5.1678,-5.1688,-5.1551,-5.155,-5.155,-5.1549,0,0,-5.1179,-5.1243,-5.1256,-5.1281,-5.133,-5.1368,-5.142,-5.147,-5.1497,-5.1535,-5.1578,-5.1644,-5.1633,-5.166,-5.1667,-5.1702,-5.1765,-5.1685,-5.1686,-5.1698,-5.1848,-5.1856,-5.1868,-5.1762,-5.1764,-5.1766,-5.1844,0,-5.1253,-5.1347,-5.1362,-5.1444,-5.149,-5.149,-5.1536,-5.157,-5.1588,-5.1629,-5.1649,-5.1695,-5.1677,-5.1694,-5.1729,-5.175,-5.1795,-5.1745,-5.1802,-5.1804,-5.1791,-5.1882,-5.1891,-5.1963,-5.1855,-5.1856,-5.1858,0,-5.135,-5.1393,-5.148,-5.1524,-5.1543,-5.1584,-5.1632,-5.1671,-5.171,-5.1721,-5.1754,-5.1757,-5.1811,-5.1781,-5.1856,-5.1821,-5.1846,-5.186,-5.1863,-5.1868,-5.1833,-5.1888,-5.1987,-5.1997,-5.1874,-5.1873,-5.1872,0,-5.1398,-5.1477,-5.154,-5.1562,-5.1614,-5.1643,-5.1666,-5.1703,-5.1733,-5.1774,-5.1793,-5.1839,-5.1864,-5.19,-5.1916,-5.1893,-5.1989,-5.1961,-5.1999,-5.1999,-5.2018,-5.2016,-5.2121,-5.2036,-5.2036,-5.2035,-5.2035,0,-5.1478,-5.1531,-5.1563,-5.1601,-5.1661,-5.1678,-5.1736,-5.1758,-5.1792,-5.1834,-5.1837,-5.1876,-5.1895,-5.1937,-5.195,-5.201,-5.2021,-5.2031,-5.2033,-5.203,-5.2029,-5.2045,-5.204,-5.2038,-5.2038,-5.2037,-5.2037,0,-5.1541,-5.1564,-5.1633,-5.1678,-5.169,-5.1732,-5.177,-5.1807,-5.1826,-5.188,-5.1893,-5.1923,-5.1973,-5.1993,-5.2053,-5.2062,-5.213,-5.2129,-5.2117,-5.2118,-5.2155,-5.215,-5.2272,-5.2289,-5.2194,-5.2195,-5.2195,0,-5.159,-5.1631,-5.1681,-5.171,-5.1735,-5.1782,-5.1812,-5.1831,-5.1862,-5.1911,-5.1942,-5.1993,-5.2034,-5.2113,-5.2139,-5.2186,-5.2186,-5.2225,-5.2192,-5.2188,-5.2185,-5.2182,-5.2186,-5.223,-5.2231,-5.2232,-5.2233,0,-5.1673,-5.1684,-5.1728,-5.1777,-5.1814,-5.1853,-5.1891,-5.1915,-5.1939,-5.1975,-5.2027,-5.2059,-5.2122,-5.2172,-5.222,-5.2243,-5.2242,-5.2244,-5.2255,-5.2251,-5.2242,-5.2247,-5.2133,-5.224,-5.2239,-5.2239,-5.2238,-5.2238,-5.173,-5.1767,-5.1809,-5.1859,-5.189,-5.1926,-5.1963,-5.1988,-5.2032,-5.2086,-5.2094,-5.2149,-5.2188,-5.2254,-5.2279,-5.2322,-5.2312,-5.2328,-5.2332,-5.2335,-5.2337,-5.2237,-5.2331,-5.2331,-5.2331,-5.2331,-5.233,0,-5.1814,-5.1841,-5.1887,-5.1941,-5.198,-5.1978,-5.2021,-5.2053,-5.2103,-5.214,-5.2181,-5.2241,-5.229,-5.2321,-5.237,-5.2399,-5.2399,-5.2411,-5.2408,-5.2413,-5.2344,-5.2329,-5.2409,-5.2409,-5.2409,-5.2409,-5.2409,-5.2409,-5.1861,-5.1924,-5.1939,-5.2018,-5.2044,-5.21,-5.2124,-5.2157,-5.2187,-5.2255,-5.2296,-5.2317,-5.2351,-5.2403,-5.2448,-5.2456,-5.2473,-5.2485,-5.2492,-5.2426,-5.2418,-5.241,-5.2396,-5.2489,-5.2489,-5.2557,-5.2558,-5.2558]},{"header":{"parameterUnit":"m.s-1","parameterCategory":1,"la1":30.2991,"la2":30.254,"lo1":-89.0895,"lo2":-89.0444,"dx":0.0017,"dy":0.0017,"nx":28,"ny":28,"refTime":"2023-02-06T15:00:00:Z","depth":0,"parameterNumber":3,"parameterNumberName":"V-component_of_WINDS"},"data":[0,0,0,0,0,0,0,0,0,0,0,0,0,0,0,0,0,0,0,0,0,0,0,0,0,0,0,0,0,0,0,0,0,0,0,0,0,0,0,0,0,0,0,0,0,0,0,0,0,0,0,0,0,0,0,0,0,0,2.3815,2.3815,0,2.3833,2.3833,2.3833,2.3915,2.3917,2.3919,2.3921,2.3931,2.393,2.3928,0,0,0,0,0,0,0,0,0,0,0,0,0,2.3847,2.3846,2.3815,2.3815,2.3815,2.3833,2.3833,2.3833,2.3915,2.3917,2.3919,2.3921,2.3932,2.393,2.3928,0,0,0,0,0,0,0,0,0,0,0,0,0,2.3845,2.3845,2.3815,2.3858,2.3862,2.3833,2.3833,2.3833,2.3914,2.3917,2.392,2.3923,2.3932,2.393,2.3928,2.3856,0,0,2.3921,2.392,0,0,0,0,0,0,0,0,2.3845,2.3844,2.3852,2.3855,2.386,2.3875,2.3848,2.3841,2.3913,2.3894,2.3921,2.3924,2.391,2.3909,2.3906,2.3856,2.3857,2.3921,2.3919,2.3918,2.3918,0,0,0,0,0,0,0,2.3845,2.3844,2.3822,2.3852,2.3857,2.3875,2.3878,2.3847,2.3885,2.3896,2.3902,2.3903,2.3912,2.3908,2.3907,2.3857,2.3921,2.3919,2.3917,2.3916,2.3754,2.3751,0,0,0,0,0,0,2.384,2.3843,2.3821,2.3822,2.386,2.3873,2.3876,2.3867,2.3886,2.3892,2.3901,2.3907,2.3911,2.3909,2.3908,2.3828,2.3918,2.3916,2.3915,2.3756,2.3753,2.375,0,0,0,0,0,0,2.384,2.3837,2.3821,2.3835,2.3834,2.3869,2.3858,2.3866,2.3862,2.389,2.3896,2.389,2.3913,2.3911,2.387,2.3829,2.3915,2.3913,2.376,2.3755,2.3751,2.3666,0,0,0,0,0,0,2.3841,2.3837,2.3811,2.3834,2.3833,2.3783,2.3856,2.3864,2.3859,2.3867,2.3881,2.3886,2.3915,2.3873,2.3867,2.3828,2.3911,2.3764,2.3758,2.3753,2.3672,2.3659,2.3648,0,0,0,0,0,2.3842,2.3783,2.3809,2.3806,2.3801,2.3781,2.378,2.3817,2.3855,2.3829,2.3847,2.3886,2.3835,2.3868,2.3862,2.3821,2.3766,2.376,2.3753,2.3678,2.3662,2.3648,0,0,0,0,0,0,2.375,2.3787,2.3816,2.3763,2.3769,2.3795,2.3762,2.3798,2.379,2.3798,2.3842,2.3844,2.3797,2.3805,2.3841,2.3755,2.3807,2.3799,2.3752,2.3737,2.3724,2.3724,2.3909,0,0,0,0,0,2.3725,2.3707,2.3739,2.3689,2.3691,2.3726,2.3718,2.3747,2.3753,2.3755,2.3771,2.3774,2.3759,2.3748,2.3735,2.3674,2.3679,2.3643,2.3631,2.3621,2.3613,2.3585,2.357,2.3728,2.3728,2.3728,0,0,2.367,2.3688,2.3673,2.3672,2.3679,2.366,2.3727,2.3702,2.3688,2.3751,2.3715,2.3726,2.3733,2.3682,2.366,2.3687,2.3572,2.3612,2.3604,2.3602,2.3577,2.3562,2.3549,2.3723,2.3724,2.3725,0,0,2.3562,2.3572,2.3535,2.3543,2.3555,2.358,2.357,2.3592,2.3604,2.3569,2.3617,2.3599,2.3572,2.3576,2.3575,2.3473,2.3509,2.3467,2.3402,2.3374,2.3362,2.3351,2.3317,2.3304,2.346,2.3459,2.3459,0,2.3492,2.3466,2.351,2.3484,2.3482,2.3542,2.3505,2.3509,2.3515,2.3512,2.3543,2.3514,2.3522,2.3475,2.3451,2.3447,2.3438,2.3466,2.3361,2.335,2.3341,2.3309,2.3296,2.3454,2.3455,2.3455,2.3456,0,2.3381,2.3362,2.333,2.334,2.3335,2.3302,2.3341,2.333,2.3359,2.338,2.3346,2.3359,2.3352,2.3343,2.3369,2.33,2.3317,2.3353,2.3407,2.332,2.3291,2.3279,2.3447,2.3449,2.3451,2.3452,0,0,2.3213,2.3252,2.3239,2.3246,2.3266,2.3252,2.3223,2.322,2.3212,2.3214,2.3192,2.317,2.3206,2.3204,2.3231,2.3207,2.3129,2.3246,2.3247,2.3226,2.3058,2.3032,2.3017,2.3153,2.3151,2.3149,2.3058,0,2.3112,2.3068,2.3108,2.3056,2.3041,2.3099,2.3075,2.3084,2.3104,2.3093,2.3113,2.3099,2.3145,2.3145,2.3123,2.3143,2.3096,2.315,2.3133,2.3132,2.3132,2.3002,2.2973,2.2886,2.3047,2.3045,2.3044,0,2.2988,2.2991,2.2937,2.2966,2.2961,2.2938,2.2941,2.293,2.2942,2.2958,2.2959,2.2995,2.2969,2.3021,2.2987,2.3023,2.3018,2.3027,2.3025,2.3025,2.3083,2.3,2.2859,2.2847,2.3026,2.3027,2.3028,0,2.2875,2.2864,2.2833,2.2836,2.2867,2.2851,2.2862,2.2878,2.2875,2.2877,2.2876,2.2872,2.2871,2.2868,2.2902,2.2937,2.2864,2.2918,2.2877,2.2876,2.2859,2.286,2.2717,2.2853,2.2854,2.2854,2.2854,0,2.2758,2.2724,2.2783,2.2763,2.2728,2.2774,2.2737,2.2755,2.2769,2.2754,2.2802,2.2787,2.2833,2.2822,2.2848,2.2817,2.2815,2.2828,2.2836,2.2825,2.2823,2.2823,2.283,2.285,2.2851,2.2852,2.2852,0,2.2626,2.2663,2.2633,2.2667,2.2675,2.2647,2.2676,2.2659,2.2684,2.2664,2.2662,2.2699,2.269,2.2724,2.2718,2.2737,2.2692,2.2708,2.2689,2.2694,2.2652,2.2657,2.2505,2.2489,2.2633,2.2632,2.2631,0,2.255,2.2526,2.2559,2.2554,2.2565,2.2555,2.2554,2.2599,2.2595,2.2611,2.2592,2.2588,2.2586,2.2568,2.2594,2.2591,2.2609,2.2556,2.2608,2.2599,2.2611,2.2613,2.2612,2.2545,2.2543,2.2542,2.2541,0,2.2412,2.2434,2.2431,2.2436,2.2435,2.244,2.2448,2.2441,2.249,2.2483,2.2476,2.2476,2.2473,2.2468,2.2471,2.2482,2.252,2.2524,2.2515,2.2504,2.2495,2.2502,2.2661,2.2527,2.2529,2.253,2.253,2.2531,2.2308,2.2291,2.2313,2.231,2.2322,2.233,2.2317,2.2342,2.2338,2.2342,2.2368,2.2356,2.2372,2.2382,2.2389,2.2381,2.2405,2.239,2.2387,2.2384,2.2378,2.2496,2.2381,2.2381,2.2381,2.2382,2.2382,0,2.2175,2.2194,2.219,2.2203,2.2201,2.224,2.2252,2.2247,2.2237,2.225,2.225,2.2243,2.2239,2.2267,2.2267,2.2255,2.2272,2.2253,2.2255,2.2258,2.2354,2.2364,2.2239,2.2239,2.224,2.224,2.224,2.224,2.2106,2.2081,2.2105,2.2087,2.2105,2.2097,2.2101,2.2109,2.212,2.2112,2.211,2.2129,2.2149,2.2151,2.215,2.2158,2.2157,2.2133,2.2146,2.2236,2.225,2.2264,2.2273,2.2131,2.2131,2.2051,2.205,2.205]}]]